| State | Oklahoma | Latest | Poor (668 cfs) | |
| River | Mountain Fork River | Rating | Observed | Estimated |
| Updated | 2026-05-05 12:30 (1 hour ago) | Flood - The river is flooding. Obstacles can be treacherous or deadly. The river should be avoided at this stage for casual trips and definitely for the inexperienced. Trips should be attempted only with protective gear and equipment.Flood | (none) | 6184 |
| Discharge | 668 cfs (median: 1130 cfs) | High - The river is high and potentially dangerous, especially for the young and / or inexperienced. Normal stream obstacles are sometimes difficult to navigate. Extended distances can be attempted, but canoe travel may not be advisable.High | (none) | 1052 |
| Height | 2.15 feet | Good - Conditions are ideal for a canoe or kayak. Boats typically will drag on fewer than one-quarter of riffles, if at all, and portages are unnecessary or rare. Normal float lengths can be attempted without a problem.Good | (none) | 754 |
| Trend | Falling (rising over 24 hours) | Low - River is low but can still be floated. Some riffles are okay but most come with significant dragging and might need a portage. Float lengths should be reduced to accommodate low flow, dragging, and portages.Low | (none) | 708 |
| USGS | USGS Site ( Duck Duck Go Maps) | Poor - River is too low to float comfortably. Most or all riffles will drag or must be portaged and some obstacles (such as slick shelf rock) cause undue problems. Avoid the river at this stage for casual paddling trips.Poor | (none) | 198 |
A total of 1 rows are displayed.
| Miles | 3.2 |
| Trips | 1 |
| People | 2 |
| Dates | 1 |
| Years | 1 |
| Months | 1 |
| Rows | 1 |
| Sources | 1 |
BLG - Bluegill
CCF - Channel Catfish
CP - Chain Pickerel
FWD - Freshwater Drum
GSF - Green Sunfish
KSB - Kentucky Spotted Bass
LMB - Largemouth Bass
LSF - Longear Sunfish
RB - Rock Bass / Goggle Eye
RSF - Redear Sunfish
RT - Rainbow Trout
SMB - Smallmouth Bass
WB - White Bass
WF - Whitefish
WL - WalleyeThe classic River Trips application is still available for use. It is updated with the new system using a data retrofit. It is no longer maintained. The original River Trips application is no longer updated (as of 1 Dec 2016) but can be checked for errors or for the condition of the data before it was converted to the new system.
| Observation | Height | Discharge | Maximum Discharge | Minimum Discharge | Mean Discharge | P05 | P10 | P20 | P25 | P50 (Median) | P75 | P80 | P90 | P95 |
|---|---|---|---|---|---|---|---|---|---|---|---|---|---|---|
| 2026-05-05 12:30 | 2.15 | 668 | 7850 (1973) | 94 (1996) | 1930 | 143 | 173 | 243 | 292 | 1130 | 2910 | 3360 | 5280 | 7060 |
| 2026-05-05 11:30 | 2.24 | 725 | 7850 (1973) | 94 (1996) | 1930 | 143 | 173 | 243 | 292 | 1130 | 2910 | 3360 | 5280 | 7060 |
| 2026-05-05 10:30 | 2.37 | 814 | 7850 (1973) | 94 (1996) | 1930 | 143 | 173 | 243 | 292 | 1130 | 2910 | 3360 | 5280 | 7060 |
| 2026-05-05 09:30 | 2.52 | 926 | 7850 (1973) | 94 (1996) | 1930 | 143 | 173 | 243 | 292 | 1130 | 2910 | 3360 | 5280 | 7060 |
| 2026-05-05 08:30 | 2.65 | 1030 | 7850 (1973) | 94 (1996) | 1930 | 143 | 173 | 243 | 292 | 1130 | 2910 | 3360 | 5280 | 7060 |
| 2026-05-05 07:30 | 2.83 | 1180 | 7850 (1973) | 94 (1996) | 1930 | 143 | 173 | 243 | 292 | 1130 | 2910 | 3360 | 5280 | 7060 |
| 2026-05-05 06:30 | 3.01 | 1340 | 7850 (1973) | 94 (1996) | 1930 | 143 | 173 | 243 | 292 | 1130 | 2910 | 3360 | 5280 | 7060 |
| 2026-05-05 05:30 | 3.20 | 1530 | 7850 (1973) | 94 (1996) | 1930 | 143 | 173 | 243 | 292 | 1130 | 2910 | 3360 | 5280 | 7060 |
| 2026-05-05 04:30 | 3.42 | 1750 | 7850 (1973) | 94 (1996) | 1930 | 143 | 173 | 243 | 292 | 1130 | 2910 | 3360 | 5280 | 7060 |
| 2026-05-05 03:30 | 3.64 | 1990 | 7850 (1973) | 94 (1996) | 1930 | 143 | 173 | 243 | 292 | 1130 | 2910 | 3360 | 5280 | 7060 |
| 2026-05-05 02:30 | 3.87 | 2250 | 7850 (1973) | 94 (1996) | 1930 | 143 | 173 | 243 | 292 | 1130 | 2910 | 3360 | 5280 | 7060 |
| 2026-05-05 01:30 | 4.11 | 2530 | 7850 (1973) | 94 (1996) | 1930 | 143 | 173 | 243 | 292 | 1130 | 2910 | 3360 | 5280 | 7060 |
| 2026-05-05 00:30 | 4.32 | 2780 | 7850 (1973) | 94 (1996) | 1930 | 143 | 173 | 243 | 292 | 1130 | 2910 | 3360 | 5280 | 7060 |
| 2026-05-04 23:30 | 4.40 | 2870 | 7850 (1973) | 94 (1996) | 1930 | 143 | 173 | 243 | 292 | 1130 | 2910 | 3360 | 5280 | 7060 |
| 2026-05-04 22:30 | 4.09 | 2510 | 8110 (1973) | 101 (1998) | 1900 | 140 | 199 | 365 | 412 | 950 | 3160 | 3410 | 4650 | 6600 |
| 2026-05-04 21:30 | 2.88 | 1220 | 8110 (1973) | 101 (1998) | 1900 | 140 | 199 | 365 | 412 | 950 | 3160 | 3410 | 4650 | 6600 |
| 2026-05-04 20:30 | 1.37 | 317 | 8110 (1973) | 101 (1998) | 1900 | 140 | 199 | 365 | 412 | 950 | 3160 | 3410 | 4650 | 6600 |
| 2026-05-04 19:30 | 0.85 | 166 | 8110 (1973) | 101 (1998) | 1900 | 140 | 199 | 365 | 412 | 950 | 3160 | 3410 | 4650 | 6600 |
| 2026-05-04 18:30 | 0.81 | 156 | 8110 (1973) | 101 (1998) | 1900 | 140 | 199 | 365 | 412 | 950 | 3160 | 3410 | 4650 | 6600 |
| 2026-05-04 17:30 | 0.82 | 158 | 8110 (1973) | 101 (1998) | 1900 | 140 | 199 | 365 | 412 | 950 | 3160 | 3410 | 4650 | 6600 |
| 2026-05-04 16:30 | 0.81 | 156 | 8110 (1973) | 101 (1998) | 1900 | 140 | 199 | 365 | 412 | 950 | 3160 | 3410 | 4650 | 6600 |
| 2026-05-04 15:30 | 0.81 | 156 | 8110 (1973) | 101 (1998) | 1900 | 140 | 199 | 365 | 412 | 950 | 3160 | 3410 | 4650 | 6600 |
| 2026-05-04 14:30 | 0.81 | 156 | 8110 (1973) | 101 (1998) | 1900 | 140 | 199 | 365 | 412 | 950 | 3160 | 3410 | 4650 | 6600 |
| 2026-05-04 13:30 | 0.83 | 161 | 8110 (1973) | 101 (1998) | 1900 | 140 | 199 | 365 | 412 | 950 | 3160 | 3410 | 4650 | 6600 |
| 2026-05-04 12:30 | 0.87 | 171 | 8110 (1973) | 101 (1998) | 1900 | 140 | 199 | 365 | 412 | 950 | 3160 | 3410 | 4650 | 6600 |
| 2026-05-04 11:30 | 0.83 | 161 | 8110 (1973) | 101 (1998) | 1900 | 140 | 199 | 365 | 412 | 950 | 3160 | 3410 | 4650 | 6600 |
| 2026-05-04 10:30 | 0.87 | 171 | 8110 (1973) | 101 (1998) | 1900 | 140 | 199 | 365 | 412 | 950 | 3160 | 3410 | 4650 | 6600 |
| 2026-05-04 09:30 | 0.87 | 171 | 8110 (1973) | 101 (1998) | 1900 | 140 | 199 | 365 | 412 | 950 | 3160 | 3410 | 4650 | 6600 |
| 2026-05-04 08:30 | 0.87 | 171 | 8110 (1973) | 101 (1998) | 1900 | 140 | 199 | 365 | 412 | 950 | 3160 | 3410 | 4650 | 6600 |
| 2026-05-04 07:30 | 0.87 | 171 | 8110 (1973) | 101 (1998) | 1900 | 140 | 199 | 365 | 412 | 950 | 3160 | 3410 | 4650 | 6600 |
| 2026-05-04 06:30 | 0.87 | 171 | 8110 (1973) | 101 (1998) | 1900 | 140 | 199 | 365 | 412 | 950 | 3160 | 3410 | 4650 | 6600 |
| 2026-05-04 05:30 | 0.87 | 171 | 8110 (1973) | 101 (1998) | 1900 | 140 | 199 | 365 | 412 | 950 | 3160 | 3410 | 4650 | 6600 |
| 2026-05-04 04:30 | 0.87 | 171 | 8110 (1973) | 101 (1998) | 1900 | 140 | 199 | 365 | 412 | 950 | 3160 | 3410 | 4650 | 6600 |
| 2026-05-04 03:30 | 0.87 | 171 | 8110 (1973) | 101 (1998) | 1900 | 140 | 199 | 365 | 412 | 950 | 3160 | 3410 | 4650 | 6600 |
| 2026-05-04 02:30 | 0.87 | 171 | 8110 (1973) | 101 (1998) | 1900 | 140 | 199 | 365 | 412 | 950 | 3160 | 3410 | 4650 | 6600 |
| 2026-05-04 01:30 | 0.87 | 171 | 8110 (1973) | 101 (1998) | 1900 | 140 | 199 | 365 | 412 | 950 | 3160 | 3410 | 4650 | 6600 |
| 2026-05-04 00:30 | 0.87 | 171 | 8110 (1973) | 101 (1998) | 1900 | 140 | 199 | 365 | 412 | 950 | 3160 | 3410 | 4650 | 6600 |
| 2026-05-03 23:30 | 0.87 | 171 | 8110 (1973) | 101 (1998) | 1900 | 140 | 199 | 365 | 412 | 950 | 3160 | 3410 | 4650 | 6600 |
| 2026-05-03 22:30 | 0.87 | 171 | 8200 (1973) | 98 (1996) | 1860 | 127 | 195 | 315 | 469 | 1230 | 2540 | 3320 | 4730 | 6170 |
| 2026-05-03 21:30 | 0.86 | 168 | 8200 (1973) | 98 (1996) | 1860 | 127 | 195 | 315 | 469 | 1230 | 2540 | 3320 | 4730 | 6170 |
| 2026-05-03 20:30 | 0.87 | 171 | 8200 (1973) | 98 (1996) | 1860 | 127 | 195 | 315 | 469 | 1230 | 2540 | 3320 | 4730 | 6170 |
| 2026-05-03 19:30 | 0.87 | 171 | 8200 (1973) | 98 (1996) | 1860 | 127 | 195 | 315 | 469 | 1230 | 2540 | 3320 | 4730 | 6170 |
| 2026-05-03 18:30 | 0.88 | 174 | 8200 (1973) | 98 (1996) | 1860 | 127 | 195 | 315 | 469 | 1230 | 2540 | 3320 | 4730 | 6170 |
| 2026-05-03 17:30 | 0.89 | 177 | 8200 (1973) | 98 (1996) | 1860 | 127 | 195 | 315 | 469 | 1230 | 2540 | 3320 | 4730 | 6170 |
| 2026-05-03 16:30 | 0.88 | 174 | 8200 (1973) | 98 (1996) | 1860 | 127 | 195 | 315 | 469 | 1230 | 2540 | 3320 | 4730 | 6170 |
| 2026-05-03 15:30 | 0.89 | 177 | 8200 (1973) | 98 (1996) | 1860 | 127 | 195 | 315 | 469 | 1230 | 2540 | 3320 | 4730 | 6170 |
| 2026-05-03 14:30 | 0.90 | 180 | 8200 (1973) | 98 (1996) | 1860 | 127 | 195 | 315 | 469 | 1230 | 2540 | 3320 | 4730 | 6170 |
| 2026-05-03 13:30 | 0.90 | 180 | 8200 (1973) | 98 (1996) | 1860 | 127 | 195 | 315 | 469 | 1230 | 2540 | 3320 | 4730 | 6170 |
| 2026-05-03 12:30 | 0.87 | 171 | 8200 (1973) | 98 (1996) | 1860 | 127 | 195 | 315 | 469 | 1230 | 2540 | 3320 | 4730 | 6170 |
| 2026-05-03 11:30 | 0.91 | 182 | 8200 (1973) | 98 (1996) | 1860 | 127 | 195 | 315 | 469 | 1230 | 2540 | 3320 | 4730 | 6170 |
| 2026-05-03 10:30 | 0.92 | 185 | 8200 (1973) | 98 (1996) | 1860 | 127 | 195 | 315 | 469 | 1230 | 2540 | 3320 | 4730 | 6170 |
| 2026-05-03 09:30 | 0.92 | 185 | 8200 (1973) | 98 (1996) | 1860 | 127 | 195 | 315 | 469 | 1230 | 2540 | 3320 | 4730 | 6170 |
| 2026-05-03 08:30 | 0.92 | 185 | 8200 (1973) | 98 (1996) | 1860 | 127 | 195 | 315 | 469 | 1230 | 2540 | 3320 | 4730 | 6170 |
| 2026-05-03 07:30 | 0.92 | 185 | 8200 (1973) | 98 (1996) | 1860 | 127 | 195 | 315 | 469 | 1230 | 2540 | 3320 | 4730 | 6170 |
| 2026-05-03 06:30 | 0.92 | 185 | 8200 (1973) | 98 (1996) | 1860 | 127 | 195 | 315 | 469 | 1230 | 2540 | 3320 | 4730 | 6170 |
| 2026-05-03 05:30 | 0.93 | 188 | 8200 (1973) | 98 (1996) | 1860 | 127 | 195 | 315 | 469 | 1230 | 2540 | 3320 | 4730 | 6170 |
| 2026-05-03 04:30 | 0.93 | 188 | 8200 (1973) | 98 (1996) | 1860 | 127 | 195 | 315 | 469 | 1230 | 2540 | 3320 | 4730 | 6170 |
| 2026-05-03 03:30 | 0.93 | 188 | 8200 (1973) | 98 (1996) | 1860 | 127 | 195 | 315 | 469 | 1230 | 2540 | 3320 | 4730 | 6170 |
| 2026-05-03 02:30 | 0.94 | 191 | 8200 (1973) | 98 (1996) | 1860 | 127 | 195 | 315 | 469 | 1230 | 2540 | 3320 | 4730 | 6170 |
| 2026-05-03 01:30 | 0.94 | 191 | 8200 (1973) | 98 (1996) | 1860 | 127 | 195 | 315 | 469 | 1230 | 2540 | 3320 | 4730 | 6170 |
| 2026-05-03 00:30 | 0.94 | 191 | 8200 (1973) | 98 (1996) | 1860 | 127 | 195 | 315 | 469 | 1230 | 2540 | 3320 | 4730 | 6170 |
| 2026-05-02 23:30 | 0.94 | 191 | 8200 (1973) | 98 (1996) | 1860 | 127 | 195 | 315 | 469 | 1230 | 2540 | 3320 | 4730 | 6170 |
| 2026-05-02 22:30 | 0.95 | 193 | 8090 (1991) | 97 (1996) | 1850 | 144 | 154 | 229 | 279 | 907 | 2740 | 3430 | 5510 | 7530 |
| 2026-05-02 21:30 | 0.95 | 193 | 8090 (1991) | 97 (1996) | 1850 | 144 | 154 | 229 | 279 | 907 | 2740 | 3430 | 5510 | 7530 |
| 2026-05-02 20:30 | 0.96 | 195 | 8090 (1991) | 97 (1996) | 1850 | 144 | 154 | 229 | 279 | 907 | 2740 | 3430 | 5510 | 7530 |
| 2026-05-02 19:30 | 0.96 | 195 | 8090 (1991) | 97 (1996) | 1850 | 144 | 154 | 229 | 279 | 907 | 2740 | 3430 | 5510 | 7530 |
| 2026-05-02 18:30 | 0.98 | 200 | 8090 (1991) | 97 (1996) | 1850 | 144 | 154 | 229 | 279 | 907 | 2740 | 3430 | 5510 | 7530 |
| 2026-05-02 17:30 | 0.99 | 202 | 8090 (1991) | 97 (1996) | 1850 | 144 | 154 | 229 | 279 | 907 | 2740 | 3430 | 5510 | 7530 |
| 2026-05-02 16:30 | 1.00 | 205 | 8090 (1991) | 97 (1996) | 1850 | 144 | 154 | 229 | 279 | 907 | 2740 | 3430 | 5510 | 7530 |
| 2026-05-02 15:30 | 0.97 | 197 | 8090 (1991) | 97 (1996) | 1850 | 144 | 154 | 229 | 279 | 907 | 2740 | 3430 | 5510 | 7530 |
| 2026-05-02 14:30 | 1.02 | 210 | 8090 (1991) | 97 (1996) | 1850 | 144 | 154 | 229 | 279 | 907 | 2740 | 3430 | 5510 | 7530 |
| 2026-05-02 13:30 | 1.03 | 213 | 8090 (1991) | 97 (1996) | 1850 | 144 | 154 | 229 | 279 | 907 | 2740 | 3430 | 5510 | 7530 |
| 2026-05-02 12:30 | 1.04 | 215 | 8090 (1991) | 97 (1996) | 1850 | 144 | 154 | 229 | 279 | 907 | 2740 | 3430 | 5510 | 7530 |
| 2026-05-02 11:30 | 1.07 | 224 | 8090 (1991) | 97 (1996) | 1850 | 144 | 154 | 229 | 279 | 907 | 2740 | 3430 | 5510 | 7530 |
| 2026-05-02 10:30 | 1.08 | 226 | 8090 (1991) | 97 (1996) | 1850 | 144 | 154 | 229 | 279 | 907 | 2740 | 3430 | 5510 | 7530 |
| 2026-05-02 09:30 | 1.10 | 232 | 8090 (1991) | 97 (1996) | 1850 | 144 | 154 | 229 | 279 | 907 | 2740 | 3430 | 5510 | 7530 |
| 2026-05-02 08:30 | 1.11 | 235 | 8090 (1991) | 97 (1996) | 1850 | 144 | 154 | 229 | 279 | 907 | 2740 | 3430 | 5510 | 7530 |
| 2026-05-02 07:30 | 1.13 | 241 | 8090 (1991) | 97 (1996) | 1850 | 144 | 154 | 229 | 279 | 907 | 2740 | 3430 | 5510 | 7530 |
| 2026-05-02 06:30 | 1.14 | 244 | 8090 (1991) | 97 (1996) | 1850 | 144 | 154 | 229 | 279 | 907 | 2740 | 3430 | 5510 | 7530 |
| 2026-05-02 05:30 | 1.15 | 247 | 8090 (1991) | 97 (1996) | 1850 | 144 | 154 | 229 | 279 | 907 | 2740 | 3430 | 5510 | 7530 |
| 2026-05-02 04:30 | 1.17 | 253 | 8090 (1991) | 97 (1996) | 1850 | 144 | 154 | 229 | 279 | 907 | 2740 | 3430 | 5510 | 7530 |
| 2026-05-02 03:30 | 1.19 | 259 | 8090 (1991) | 97 (1996) | 1850 | 144 | 154 | 229 | 279 | 907 | 2740 | 3430 | 5510 | 7530 |
| 2026-05-02 02:30 | 1.21 | 265 | 8090 (1991) | 97 (1996) | 1850 | 144 | 154 | 229 | 279 | 907 | 2740 | 3430 | 5510 | 7530 |
| 2026-05-02 01:30 | 1.23 | 271 | 8090 (1991) | 97 (1996) | 1850 | 144 | 154 | 229 | 279 | 907 | 2740 | 3430 | 5510 | 7530 |
| 2026-05-02 00:30 | 1.26 | 281 | 8090 (1991) | 97 (1996) | 1850 | 144 | 154 | 229 | 279 | 907 | 2740 | 3430 | 5510 | 7530 |
| 2026-05-01 23:30 | 1.28 | 287 | 8090 (1991) | 97 (1996) | 1850 | 144 | 154 | 229 | 279 | 907 | 2740 | 3430 | 5510 | 7530 |
| 2026-05-01 22:30 | 1.31 | 297 | 7450 (2008) | 94 (2000) | 1860 | 129 | 136 | 183 | 212 | 907 | 3130 | 3480 | 5710 | 6600 |
| 2026-05-01 21:30 | 1.34 | 307 | 7450 (2008) | 94 (2000) | 1860 | 129 | 136 | 183 | 212 | 907 | 3130 | 3480 | 5710 | 6600 |
| 2026-05-01 20:30 | 1.37 | 317 | 7450 (2008) | 94 (2000) | 1860 | 129 | 136 | 183 | 212 | 907 | 3130 | 3480 | 5710 | 6600 |
| 2026-05-01 19:30 | 1.41 | 331 | 7450 (2008) | 94 (2000) | 1860 | 129 | 136 | 183 | 212 | 907 | 3130 | 3480 | 5710 | 6600 |
| 2026-05-01 18:30 | 1.45 | 345 | 7450 (2008) | 94 (2000) | 1860 | 129 | 136 | 183 | 212 | 907 | 3130 | 3480 | 5710 | 6600 |
| 2026-05-01 17:30 | 1.49 | 360 | 7450 (2008) | 94 (2000) | 1860 | 129 | 136 | 183 | 212 | 907 | 3130 | 3480 | 5710 | 6600 |
| 2026-05-01 16:30 | 1.54 | 378 | 7450 (2008) | 94 (2000) | 1860 | 129 | 136 | 183 | 212 | 907 | 3130 | 3480 | 5710 | 6600 |
| 2026-05-01 15:30 | 1.60 | 401 | 7450 (2008) | 94 (2000) | 1860 | 129 | 136 | 183 | 212 | 907 | 3130 | 3480 | 5710 | 6600 |
| 2026-05-01 14:30 | 1.66 | 425 | 7450 (2008) | 94 (2000) | 1860 | 129 | 136 | 183 | 212 | 907 | 3130 | 3480 | 5710 | 6600 |
| 2026-05-01 13:30 | 1.70 | 442 | 7450 (2008) | 94 (2000) | 1860 | 129 | 136 | 183 | 212 | 907 | 3130 | 3480 | 5710 | 6600 |
| 2026-05-01 12:30 | 1.80 | 485 | 7450 (2008) | 94 (2000) | 1860 | 129 | 136 | 183 | 212 | 907 | 3130 | 3480 | 5710 | 6600 |
| 2026-05-01 11:30 | 1.87 | 518 | 7450 (2008) | 94 (2000) | 1860 | 129 | 136 | 183 | 212 | 907 | 3130 | 3480 | 5710 | 6600 |
| 2026-05-01 10:30 | 1.95 | 557 | 7450 (2008) | 94 (2000) | 1860 | 129 | 136 | 183 | 212 | 907 | 3130 | 3480 | 5710 | 6600 |
| 2026-05-01 09:30 | 2.04 | 604 | 7450 (2008) | 94 (2000) | 1860 | 129 | 136 | 183 | 212 | 907 | 3130 | 3480 | 5710 | 6600 |
| 2026-05-01 08:30 | 2.14 | 662 | 7450 (2008) | 94 (2000) | 1860 | 129 | 136 | 183 | 212 | 907 | 3130 | 3480 | 5710 | 6600 |
| 2026-05-01 07:30 | 2.24 | 725 | 7450 (2008) | 94 (2000) | 1860 | 129 | 136 | 183 | 212 | 907 | 3130 | 3480 | 5710 | 6600 |
| 2026-05-01 06:30 | 2.36 | 807 | 7450 (2008) | 94 (2000) | 1860 | 129 | 136 | 183 | 212 | 907 | 3130 | 3480 | 5710 | 6600 |
| 2026-05-01 05:30 | 2.49 | 903 | 7450 (2008) | 94 (2000) | 1860 | 129 | 136 | 183 | 212 | 907 | 3130 | 3480 | 5710 | 6600 |
| 2026-05-01 04:30 | 2.63 | 1020 | 7450 (2008) | 94 (2000) | 1860 | 129 | 136 | 183 | 212 | 907 | 3130 | 3480 | 5710 | 6600 |
| 2026-05-01 03:30 | 2.79 | 1150 | 7450 (2008) | 94 (2000) | 1860 | 129 | 136 | 183 | 212 | 907 | 3130 | 3480 | 5710 | 6600 |
| 2026-05-01 02:30 | 2.96 | 1300 | 7450 (2008) | 94 (2000) | 1860 | 129 | 136 | 183 | 212 | 907 | 3130 | 3480 | 5710 | 6600 |
| 2026-05-01 01:30 | 3.13 | 1460 | 7450 (2008) | 94 (2000) | 1860 | 129 | 136 | 183 | 212 | 907 | 3130 | 3480 | 5710 | 6600 |
| 2026-05-01 00:30 | 3.27 | 1600 | 7450 (2008) | 94 (2000) | 1860 | 129 | 136 | 183 | 212 | 907 | 3130 | 3480 | 5710 | 6600 |
| 2026-04-30 23:30 | 3.35 | 1680 | 7450 (2008) | 94 (2000) | 1860 | 129 | 136 | 183 | 212 | 907 | 3130 | 3480 | 5710 | 6600 |
| 2026-04-30 22:30 | 3.07 | 1400 | 7640 (2008) | 98 (2000) | 1870 | 139 | 155 | 248 | 325 | 1020 | 2870 | 3420 | 4970 | 6720 |
| 2026-04-30 21:30 | 2.16 | 674 | 7640 (2008) | 98 (2000) | 1870 | 139 | 155 | 248 | 325 | 1020 | 2870 | 3420 | 4970 | 6720 |
| 2026-04-30 20:30 | 1.46 | 349 | 7640 (2008) | 98 (2000) | 1870 | 139 | 155 | 248 | 325 | 1020 | 2870 | 3420 | 4970 | 6720 |
| 2026-04-30 19:30 | 1.46 | 349 | 7640 (2008) | 98 (2000) | 1870 | 139 | 155 | 248 | 325 | 1020 | 2870 | 3420 | 4970 | 6720 |
| 2026-04-30 18:30 | 1.50 | 363 | 7640 (2008) | 98 (2000) | 1870 | 139 | 155 | 248 | 325 | 1020 | 2870 | 3420 | 4970 | 6720 |
| 2026-04-30 17:30 | 1.54 | 378 | 7640 (2008) | 98 (2000) | 1870 | 139 | 155 | 248 | 325 | 1020 | 2870 | 3420 | 4970 | 6720 |
| 2026-04-30 16:30 | 1.58 | 393 | 7640 (2008) | 98 (2000) | 1870 | 139 | 155 | 248 | 325 | 1020 | 2870 | 3420 | 4970 | 6720 |
| 2026-04-30 15:30 | 1.63 | 413 | 7640 (2008) | 98 (2000) | 1870 | 139 | 155 | 248 | 325 | 1020 | 2870 | 3420 | 4970 | 6720 |
| 2026-04-30 14:30 | 1.68 | 433 | 7640 (2008) | 98 (2000) | 1870 | 139 | 155 | 248 | 325 | 1020 | 2870 | 3420 | 4970 | 6720 |
| 2026-04-30 13:30 | 1.74 | 459 | 7640 (2008) | 98 (2000) | 1870 | 139 | 155 | 248 | 325 | 1020 | 2870 | 3420 | 4970 | 6720 |
| 2026-04-30 12:30 | 1.81 | 490 | 7640 (2008) | 98 (2000) | 1870 | 139 | 155 | 248 | 325 | 1020 | 2870 | 3420 | 4970 | 6720 |
| 2026-04-30 11:30 | 1.87 | 518 | 7640 (2008) | 98 (2000) | 1870 | 139 | 155 | 248 | 325 | 1020 | 2870 | 3420 | 4970 | 6720 |
| 2026-04-30 10:30 | 1.95 | 557 | 7640 (2008) | 98 (2000) | 1870 | 139 | 155 | 248 | 325 | 1020 | 2870 | 3420 | 4970 | 6720 |
| 2026-04-30 09:30 | 2.01 | 588 | 7640 (2008) | 98 (2000) | 1870 | 139 | 155 | 248 | 325 | 1020 | 2870 | 3420 | 4970 | 6720 |
| 2026-04-30 08:30 | 2.11 | 644 | 7640 (2008) | 98 (2000) | 1870 | 139 | 155 | 248 | 325 | 1020 | 2870 | 3420 | 4970 | 6720 |
| 2026-04-30 07:30 | 2.20 | 699 | 7640 (2008) | 98 (2000) | 1870 | 139 | 155 | 248 | 325 | 1020 | 2870 | 3420 | 4970 | 6720 |
| 2026-04-30 06:30 | 2.30 | 765 | 7640 (2008) | 98 (2000) | 1870 | 139 | 155 | 248 | 325 | 1020 | 2870 | 3420 | 4970 | 6720 |
| 2026-04-30 05:30 | 2.41 | 843 | 7640 (2008) | 98 (2000) | 1870 | 139 | 155 | 248 | 325 | 1020 | 2870 | 3420 | 4970 | 6720 |
| 2026-04-30 04:30 | 2.54 | 942 | 7640 (2008) | 98 (2000) | 1870 | 139 | 155 | 248 | 325 | 1020 | 2870 | 3420 | 4970 | 6720 |
| 2026-04-30 03:30 | 2.69 | 1060 | 7640 (2008) | 98 (2000) | 1870 | 139 | 155 | 248 | 325 | 1020 | 2870 | 3420 | 4970 | 6720 |
| 2026-04-30 02:30 | 2.83 | 1180 | 7640 (2008) | 98 (2000) | 1870 | 139 | 155 | 248 | 325 | 1020 | 2870 | 3420 | 4970 | 6720 |
| 2026-04-30 01:30 | 2.98 | 1310 | 7640 (2008) | 98 (2000) | 1870 | 139 | 155 | 248 | 325 | 1020 | 2870 | 3420 | 4970 | 6720 |
| 2026-04-30 00:30 | 3.13 | 1460 | 7640 (2008) | 98 (2000) | 1870 | 139 | 155 | 248 | 325 | 1020 | 2870 | 3420 | 4970 | 6720 |
| 2026-04-29 23:30 | 3.21 | 1540 | 7640 (2008) | 98 (2000) | 1870 | 139 | 155 | 248 | 325 | 1020 | 2870 | 3420 | 4970 | 6720 |
| 2026-04-29 22:30 | 3.10 | 1430 | 8420 (2016) | 113 (2003) | 1960 | 150 | 177 | 219 | 279 | 1090 | 2770 | 3230 | 6070 | 6960 |
| 2026-04-29 21:30 | 2.61 | 999 | 8420 (2016) | 113 (2003) | 1960 | 150 | 177 | 219 | 279 | 1090 | 2770 | 3230 | 6070 | 6960 |
| 2026-04-29 20:30 | 2.03 | 599 | 8420 (2016) | 113 (2003) | 1960 | 150 | 177 | 219 | 279 | 1090 | 2770 | 3230 | 6070 | 6960 |
| 2026-04-29 19:30 | 1.99 | 577 | 8420 (2016) | 113 (2003) | 1960 | 150 | 177 | 219 | 279 | 1090 | 2770 | 3230 | 6070 | 6960 |
| 2026-04-29 18:30 | 2.06 | 615 | 8420 (2016) | 113 (2003) | 1960 | 150 | 177 | 219 | 279 | 1090 | 2770 | 3230 | 6070 | 6960 |
| 2026-04-29 17:30 | 2.14 | 662 | 8420 (2016) | 113 (2003) | 1960 | 150 | 177 | 219 | 279 | 1090 | 2770 | 3230 | 6070 | 6960 |
| 2026-04-29 16:30 | 2.21 | 705 | 8420 (2016) | 113 (2003) | 1960 | 150 | 177 | 219 | 279 | 1090 | 2770 | 3230 | 6070 | 6960 |
| 2026-04-29 15:30 | 2.30 | 765 | 8420 (2016) | 113 (2003) | 1960 | 150 | 177 | 219 | 279 | 1090 | 2770 | 3230 | 6070 | 6960 |
| 2026-04-29 14:30 | 2.40 | 836 | 8420 (2016) | 113 (2003) | 1960 | 150 | 177 | 219 | 279 | 1090 | 2770 | 3230 | 6070 | 6960 |
| 2026-04-29 13:30 | 2.50 | 911 | 8420 (2016) | 113 (2003) | 1960 | 150 | 177 | 219 | 279 | 1090 | 2770 | 3230 | 6070 | 6960 |
| 2026-04-29 12:30 | 2.61 | 999 | 8420 (2016) | 113 (2003) | 1960 | 150 | 177 | 219 | 279 | 1090 | 2770 | 3230 | 6070 | 6960 |
| 2026-04-29 11:30 | 2.73 | 1100 | 8420 (2016) | 113 (2003) | 1960 | 150 | 177 | 219 | 279 | 1090 | 2770 | 3230 | 6070 | 6960 |
| 2026-04-29 10:30 | 2.86 | 1210 | 8420 (2016) | 113 (2003) | 1960 | 150 | 177 | 219 | 279 | 1090 | 2770 | 3230 | 6070 | 6960 |
| 2026-04-29 09:30 | 3.01 | 1340 | 8420 (2016) | 113 (2003) | 1960 | 150 | 177 | 219 | 279 | 1090 | 2770 | 3230 | 6070 | 6960 |
| 2026-04-29 08:30 | 3.16 | 1490 | 8420 (2016) | 113 (2003) | 1960 | 150 | 177 | 219 | 279 | 1090 | 2770 | 3230 | 6070 | 6960 |
| 2026-04-29 07:30 | 3.32 | 1650 | 8420 (2016) | 113 (2003) | 1960 | 150 | 177 | 219 | 279 | 1090 | 2770 | 3230 | 6070 | 6960 |
| 2026-04-29 06:30 | 3.51 | 1850 | 8420 (2016) | 113 (2003) | 1960 | 150 | 177 | 219 | 279 | 1090 | 2770 | 3230 | 6070 | 6960 |
| 2026-04-29 05:30 | 3.71 | 2070 | 8420 (2016) | 113 (2003) | 1960 | 150 | 177 | 219 | 279 | 1090 | 2770 | 3230 | 6070 | 6960 |
| 2026-04-29 04:30 | 3.90 | 2280 | 8420 (2016) | 113 (2003) | 1960 | 150 | 177 | 219 | 279 | 1090 | 2770 | 3230 | 6070 | 6960 |
| 2026-04-29 03:30 | 4.11 | 2530 | 8420 (2016) | 113 (2003) | 1960 | 150 | 177 | 219 | 279 | 1090 | 2770 | 3230 | 6070 | 6960 |
| 2026-04-29 02:30 | 4.30 | 2750 | 8420 (2016) | 113 (2003) | 1960 | 150 | 177 | 219 | 279 | 1090 | 2770 | 3230 | 6070 | 6960 |
| 2026-04-29 01:30 | 4.51 | 3010 | 8420 (2016) | 113 (2003) | 1960 | 150 | 177 | 219 | 279 | 1090 | 2770 | 3230 | 6070 | 6960 |
| 2026-04-29 00:30 | 4.69 | 3250 | 8420 (2016) | 113 (2003) | 1960 | 150 | 177 | 219 | 279 | 1090 | 2770 | 3230 | 6070 | 6960 |
| 2026-04-28 23:30 | 4.86 | 3480 | 8420 (2016) | 113 (2003) | 1960 | 150 | 177 | 219 | 279 | 1090 | 2770 | 3230 | 6070 | 6960 |
| 2026-04-28 22:30 | 4.94 | 3590 | 8000 (2008) | 116 (2003) | 1900 | 133 | 174 | 206 | 265 | 1040 | 2360 | 3100 | 6640 | 7030 |
| 2026-04-28 21:30 | 4.75 | 3330 | 8000 (2008) | 116 (2003) | 1900 | 133 | 174 | 206 | 265 | 1040 | 2360 | 3100 | 6640 | 7030 |
| 2026-04-28 20:30 | 3.88 | 2260 | 8000 (2008) | 116 (2003) | 1900 | 133 | 174 | 206 | 265 | 1040 | 2360 | 3100 | 6640 | 7030 |
| 2026-04-28 19:30 | 2.53 | 934 | 8000 (2008) | 116 (2003) | 1900 | 133 | 174 | 206 | 265 | 1040 | 2360 | 3100 | 6640 | 7030 |
| 2026-04-28 18:30 | 1.73 | 454 | 8000 (2008) | 116 (2003) | 1900 | 133 | 174 | 206 | 265 | 1040 | 2360 | 3100 | 6640 | 7030 |
| 2026-04-28 17:30 | 1.66 | 425 | 8000 (2008) | 116 (2003) | 1900 | 133 | 174 | 206 | 265 | 1040 | 2360 | 3100 | 6640 | 7030 |
| 2026-04-28 16:30 | 1.71 | 446 | 8000 (2008) | 116 (2003) | 1900 | 133 | 174 | 206 | 265 | 1040 | 2360 | 3100 | 6640 | 7030 |
| 2026-04-28 15:30 | 1.75 | 463 | 8000 (2008) | 116 (2003) | 1900 | 133 | 174 | 206 | 265 | 1040 | 2360 | 3100 | 6640 | 7030 |
| 2026-04-28 14:30 | 1.80 | 485 | 8000 (2008) | 116 (2003) | 1900 | 133 | 174 | 206 | 265 | 1040 | 2360 | 3100 | 6640 | 7030 |
| 2026-04-28 13:30 | 1.88 | 522 | 8000 (2008) | 116 (2003) | 1900 | 133 | 174 | 206 | 265 | 1040 | 2360 | 3100 | 6640 | 7030 |
| 2026-04-28 12:30 | 1.94 | 552 | 8000 (2008) | 116 (2003) | 1900 | 133 | 174 | 206 | 265 | 1040 | 2360 | 3100 | 6640 | 7030 |
| 2026-04-28 11:30 | 1.98 | 572 | 8000 (2008) | 116 (2003) | 1900 | 133 | 174 | 206 | 265 | 1040 | 2360 | 3100 | 6640 | 7030 |
| 2026-04-28 10:30 | 2.08 | 627 | 8000 (2008) | 116 (2003) | 1900 | 133 | 174 | 206 | 265 | 1040 | 2360 | 3100 | 6640 | 7030 |
| 2026-04-28 09:30 | 2.18 | 686 | 8000 (2008) | 116 (2003) | 1900 | 133 | 174 | 206 | 265 | 1040 | 2360 | 3100 | 6640 | 7030 |
| 2026-04-28 08:30 | 2.31 | 772 | 8000 (2008) | 116 (2003) | 1900 | 133 | 174 | 206 | 265 | 1040 | 2360 | 3100 | 6640 | 7030 |
| 2026-04-28 07:30 | 2.44 | 865 | 8000 (2008) | 116 (2003) | 1900 | 133 | 174 | 206 | 265 | 1040 | 2360 | 3100 | 6640 | 7030 |
| 2026-04-28 06:30 | 2.58 | 974 | 8000 (2008) | 116 (2003) | 1900 | 133 | 174 | 206 | 265 | 1040 | 2360 | 3100 | 6640 | 7030 |
| 2026-04-28 05:30 | 2.74 | 1100 | 8000 (2008) | 116 (2003) | 1900 | 133 | 174 | 206 | 265 | 1040 | 2360 | 3100 | 6640 | 7030 |
| 2026-04-28 04:30 | 2.91 | 1250 | 8000 (2008) | 116 (2003) | 1900 | 133 | 174 | 206 | 265 | 1040 | 2360 | 3100 | 6640 | 7030 |
| 2026-04-28 03:30 | 3.10 | 1430 | 8000 (2008) | 116 (2003) | 1900 | 133 | 174 | 206 | 265 | 1040 | 2360 | 3100 | 6640 | 7030 |
| 2026-04-28 02:30 | 3.29 | 1620 | 8000 (2008) | 116 (2003) | 1900 | 133 | 174 | 206 | 265 | 1040 | 2360 | 3100 | 6640 | 7030 |
| 2026-04-28 01:30 | 3.52 | 1860 | 8000 (2008) | 116 (2003) | 1900 | 133 | 174 | 206 | 265 | 1040 | 2360 | 3100 | 6640 | 7030 |
| 2026-04-28 00:30 | 3.73 | 2090 | 8000 (2008) | 116 (2003) | 1900 | 133 | 174 | 206 | 265 | 1040 | 2360 | 3100 | 6640 | 7030 |
| 2026-04-27 23:30 | 3.91 | 2290 | 8000 (2008) | 116 (2003) | 1900 | 133 | 174 | 206 | 265 | 1040 | 2360 | 3100 | 6640 | 7030 |
A total of 182 rows are displayed for years 1970 through 2025.